Location: *
(41.7492°S, 135.4150°W)
Time: 19:06:09
(UTC+00:00)

Cosmos 2228 Rocket - Pass Details

Date: 20 September 2021
Orbit: 618 x 652 km, 82.5° (Epoch: 16 October)

Event Time Altitude Azimuth Distance (km) Brightness Sun altitude
Rises 13:08:07 0° 189° (S) 2,937 6.6 -20.2°
Reaches altitude 10° 13:10:21 10° 189° (S) 2,024 5.8 -19.8°
Maximum altitude 13:14:51 87° 276° (W) 640 3.0 -19.0°
Drops below altitude 10° 13:19:19 10° 5° (N) 2,009 5.6 -18.2°
Sets 13:21:32 0° 5° (N) 2,913 6.4 -17.8°
